Total_Precipitation_Accumulation
2.58 2.16 3.55 3.73 3.36 3.01 2.76 2.78 2.95 2.93 3.02 3.02 2.89 2.63 2.49 2.44 2.50 2.57 2.35 2.11 2.07 2.12 2.38 2.54 2.48 2.54 2.40 2.37 2.41 2.56 2.66 2.68 2.72 2.39 2.17 2.08 1.99 2.06 2.24 2.43 2.66 2.91 2.52
1.81 1.83 3.14 3.55 3.41 3.18 3.04 2.98 3.01 3.01 3.00 2.92 2.77 2.64 2.36 2.23 2.39 2.66 2.41 2.29 2.15 2.05 2.20 2.43 2.51 2.64 2.61 2.63 2.72 2.74 2.70 2.66 2.73 2.54 2.46 2.42 2.21 2.17 2.04 2.21 2.62 2.88 2.39
1.57 1.74 2.52 3.45 3.40 3.12 3.12 3.04 2.92 2.90 2.86 2.71 2.57 2.39 2.33 2.23 2.31 2.60 2.45 2.42 2.31 2.21 2.29 2.49 2.69 2.86 2.86 2.91 3.01 2.95 2.80 2.84 2.77 2.56 2.84 3.20 2.63 2.38 2.31 2.30 2.32 2.35 2.27
1.32 1.53 2.11 2.97 2.90 2.81 2.82 2.62 2.52 2.48 2.40 2.43 2.42 2.23 2.19 2.20 2.36 2.64 2.54 2.37 2.25 2.18 2.26 2.49 2.74 2.80 2.83 2.94 3.02 3.15 3.00 3.04 2.96 2.58 2.71 3.10 3.00 2.73 2.63 2.56 2.34 2.25 2.42
1.12 1.44 2.19 2.82 2.67 2.66 2.61 2.35 2.36 2.23 2.16 2.20 2.28 2.20 2.25 2.19 2.26 2.48 2.51 2.48 2.44 2.46 2.43 2.57 2.68 2.67 2.78 2.88 2.97 3.16 3.26 3.26 2.96 2.35 2.29 2.70 3.37 3.17 2.70 2.63 2.53 2.47 2.51
1.18 1.33 1.88 2.46 2.42 2.36 2.33 2.38 2.32 2.16 2.13 2.11 2.13 2.18 2.20 2.21 2.18 2.31 2.47 2.42 2.37 2.60 2.73 2.73 2.73 2.76 2.81 2.82 2.78 3.03 3.28 3.04 2.51 2.36 2.46 2.78 3.26 3.18 2.65 2.43 2.55 2.65 2.69
1.07 1.11 1.47 2.13 2.16 2.09 2.13 2.24 2.30 2.21 2.21 2.11 2.12 2.26 2.29 2.23 2.20 2.31 2.46 2.43 2.36 2.48 2.72 2.69 2.61 2.59 2.55 2.57 2.58 2.69 2.93 2.72 2.32 2.41 2.56 2.84 2.91 3.02 2.69 2.49 2.62 2.68 2.78
1.16 1.08 1.25 1.93 2.09 1.99 2.08 2.13 2.19 2.27 2.24 2.13 2.13 2.16 2.23 2.31 2.25 2.31 2.33 2.37 2.30 2.34 2.53 2.54 2.41 2.43 2.31 2.27 2.37 2.45 2.59 2.33 1.97 2.12 2.38 2.76 3.09 3.07 2.59 2.41 2.41 2.57 2.74
1.42 1.37 1.43 1.65 1.82 1.96 2.08 2.11 2.23 2.34 2.28 2.11 2.01 2.00 2.04 2.16 2.10 2.03 2.00 2.14 2.16 2.25 2.33 2.32 2.36 2.38 2.29 2.28 2.36 2.48 2.51 2.18 1.91 2.13 2.08 2.70 3.32 3.18 2.74 2.47 2.35 2.48 2.60
1.38 1.38 1.42 1.55 1.61 1.64 1.80 2.16 2.43 2.77 2.62 2.16 1.85 1.72 1.86 1.87 1.83 1.89 1.81 1.93 2.08 2.27 2.49 2.50 2.53 2.39 2.38 2.29 2.24 2.30 2.17 1.80 1.85 1.88 2.15 2.67 3.51 3.31 2.83 2.44 2.23 2.19 2.25
1.06 1.11 1.23 1.35 1.39 1.45 1.46 1.72 2.24 2.69 2.68 2.23 1.83 1.76 1.68 1.41 1.39 1.58 1.74 2.02 2.18 2.35 2.68 2.76 2.66 2.51 2.35 2.19 2.10 2.05 1.67 1.40 1.66 1.81 2.22 2.90 3.39 3.30 2.77 2.39 2.15 2.08 1.97
0.88 0.84 0.87 0.91 1.02 1.10 1.11 1.44 1.75 1.80 2.01 1.76 1.69 1.61 1.55 1.53 1.53 1.32 1.46 1.92 2.17 2.24 2.50 2.68 2.61 2.26 1.80 1.59 1.69 1.70 1.36 1.29 1.44 1.63 2.19 3.06 3.53 3.33 2.75 2.36 2.17 2.08 1.91
0.79 0.77 0.71 0.71 0.79 0.94 1.09 1.26 1.47 1.62 1.78 1.74 1.68 1.69 1.78 1.75 1.45 1.30 1.38 1.52 1.69 1.79 1.81 1.97 2.00 1.72 1.46 1.38 1.50 1.42 1.26 1.23 1.33 1.49 2.16 3.05 3.56 3.40 2.77 2.35 2.25 2.22 2.15
0.65 0.75 0.72 0.59 0.61 0.70 0.79 0.97 1.13 1.34 1.54 1.59 1.43 1.41 1.58 1.65 1.48 1.36 1.51 1.55 1.64 1.75 1.80 1.80 1.77 1.59 1.29 1.23 1.36 1.36 1.23 1.28 1.30 1.38 1.87 2.48 3.05 3.27 3.02 2.64 2.51 2.38 2.45
0.66 0.74 0.78 0.69 0.64 0.68 0.73 0.80 0.83 1.12 1.30 1.46 1.53 1.34 1.46 1.54 1.50 1.39 1.35 1.51 1.50 1.63 1.68 1.77 1.82 1.67 1.48 1.32 1.32 1.30 1.39 1.38 1.29 1.24 1.54 1.85 2.22 2.85 3.16 3.09 2.95 2.77 2.72
0.62 0.72 0.74 0.76 0.74 0.73 0.75 0.75 0.75 0.82 0.91 1.01 0.97 0.96 1.14 1.29 1.34 1.36 1.25 1.32 1.43 1.63 1.88 1.98 1.81 1.71 1.59 1.51 1.53 1.47 1.47 1.41 1.36 1.26 1.40 1.55 1.56 1.90 2.46 3.04 3.28 3.16 3.02
0.60 0.66 0.72 0.78 0.85 0.85 0.85 0.90 0.88 0.83 0.85 0.84 0.81 0.82 0.91 1.05 1.14 1.24 1.30 1.29 1.35 1.61 1.91 2.12 1.99 1.86 1.67 1.64 1.64 1.59 1.50 1.48 1.40 1.36 1.46 1.61 1.48 1.48 1.89 2.56 3.20 3.42 3.22
0.59 0.56 0.61 0.65 0.75 0.79 0.84 0.89 0.98 0.97 0.97 0.95 0.97 0.92 0.89 1.04 1.16 1.25 1.36 1.31 1.34 1.58 1.87 2.12 2.18 2.17 2.07 1.98 1.87 1.74 1.65 1.75 1.59 1.48 1.56 1.69 1.79 1.63 1.68 2.04 2.56 3.05 3.21
0.53 0.48 0.47 0.54 0.58 0.61 0.65 0.73 0.85 0.93 0.99 1.08 1.07 1.08 1.11 1.18 1.20 1.31 1.52 1.55 1.56 1.74 1.85 1.88 2.04 2.10 2.18 2.13 1.88 1.83 1.74 1.84 1.91 1.81 1.88 1.98 2.03 1.95 1.83 1.76 1.95 2.18 2.72
0.46 0.46 0.46 0.49 0.51 0.49 0.51 0.62 0.76 0.84 0.90 1.09 1.15 1.20 1.47 1.61 1.42 1.38 1.56 1.61 1.67 1.92 1.98 2.01 2.25 2.24 2.18 2.24 2.00 1.87 1.83 1.83 1.84 2.04 2.19 2.21 2.18 2.00 1.96 1.81 1.89 1.85 2.21
0.30 0.30 0.36 0.40 0.50 0.51 0.45 0.48 0.64 0.78 0.90 1.06 1.24 1.25 1.46 1.59 1.51 1.55 1.61 1.67 1.72 1.85 1.91 2.02 2.38 2.43 2.27 2.13 2.31 2.30 2.19 1.98 1.89 1.96 2.08 2.30 2.37 2.15 2.06 2.05 1.96 1.87 1.79
0.27 0.22 0.25 0.29 0.41 0.52 0.55 0.59 0.73 0.93 1.05 1.17 1.34 1.38 1.45 1.46 1.45 1.40 1.63 1.79 1.78 1.93 1.99 2.13 2.44 2.70 2.44 2.24 2.60 3.08 2.82 2.51 2.15 1.90 1.93 1.99 2.22 2.19 2.02 1.88 1.81 1.81 1.77
0.21 0.18 0.22 0.32 0.46 0.63 0.81 1.05 1.32 1.63 1.79 1.69 1.57 1.66 1.74 1.78 1.71 1.66 1.77 1.95 1.93 2.00 2.10 2.14 2.23 2.75 2.92 2.65 2.57 3.17 3.04 2.78 2.72 2.16 1.74 1.63 1.90 2.09 2.08 1.93 1.88 1.96 1.96
0.26 0.32 0.42 0.55 0.72 0.88 1.09 1.31 1.60 1.88 2.09 2.10 2.15 2.21 2.16 2.08 1.96 1.83 1.88 1.99 2.04 2.13 2.09 1.92 2.08 2.58 3.10 3.15 2.90 2.66 2.50 2.42 2.60 2.50 1.93 1.58 1.64 1.83 2.03 1.92 1.92 2.03 2.09
0.43 0.57 0.69 0.94 1.11 1.25 1.30 1.38 1.61 1.73 1.83 1.95 2.11 2.18 2.18 2.11 2.00 1.85 1.82 1.98 2.10 2.17 2.15 2.17 2.31 2.61 2.94 3.23 3.18 2.91 2.62 2.37 1.94 2.11 2.15 1.92 1.63 1.52 1.61 1.74 1.90 1.96 2.03
0.75 0.98 1.13 1.27 1.38 1.37 1.32 1.32 1.43 1.59 1.70 1.81 1.97 2.05 1.99 1.88 1.86 1.81 1.81 1.87 1.89 1.97 2.06 2.22 2.45 2.58 2.76 2.99 3.05 2.74 2.59 2.49 2.26 2.06 1.89 1.98 1.93 1.61 1.46 1.46 1.58 1.76 1.84